User: anonymous   Login
Location: Ammerl�gen
(47.2167°N, 9.6000°E)
Time: 21:04:12
(UTC+00:00)
Language:

FENGYUN 1C DEB - Orbit

View from above orbital plane
View from above orbital plane
View from above satellite
View from above satellite

Ground track
Ground track

The orbit data is extracted from the following two-line orbital elements,

1 30206U 99025VP  21339.28823791  .00000290  00000-0  87892-4 0  9993
2 30206  98.2686   1.1679 0160665 183.6271 176.3767 14.42244020782500
Epoch (UTC): 05 December 2021 06:55:03
Eccentricity: 0.0160665
inclination: 98.2686°
perigee height: 636 km
apogee height: 865 km
right ascension of ascending node: 1.1679°
argument of perigee: 183.6271°
revolutions per day: 14.42244020
mean anomaly at epoch: 176.3767°
orbit number at epoch: 78250

The dashed part of the orbit path shows where the satellite is in the earth's shadow,  

DLR